sat.trackr.live / text

‹ back to catalog

HULIANWANG DIGUI-56

NORAD 65113 · 2025-168H

PAYLOAD ACTIVE UNKNOWN

§ Identity

Operator
Country
PRC
Launch date
2025-08-04
Launch site
WSC
Launch vehicle
Mass (kg)
RCS (m²)

External: N2YO · Heavens-Above · Gunter

§ Orbital elements

Epoch: 2026-09-21T17:12:22.883328Z

Period
108.33 min
Inclination
50.0006°
Eccentricity
0.0011064
Mean motion
13.29326435 rev/d
Perigee alt
1,141.0 km
Apogee alt
1,157.6 km
Semi-major
7,527.4 km
B*
7.1231e-5
RAAN
339.1645°
Arg perigee
41.5968°
Mean anomaly
318.5744°
Rev number
5,553

§ Raw data

HULIANWANG DIGUI-561 65113U 25168H   26264.71693152 -.00000091  00000+0  71231-4 0  99902 65113  50.0006 339.1645 0011064  41.5968 318.5744 13.29326435 55533

JSON: /api/v1/satellites/65113 · /tle

For live sub-satellite position, see the globe view (requires WebGL).

§ Visibility from observer

Set your observer location to see the next 7 days of passes ≥ 10°. The values pass through the URL so the page stays shareable.

No JS? Fill the form by hand. The geolocation button needs JavaScript.